Location: River House Observatory
(37.8577°N, 76.3548°W)
Time: 07:17:17
(UTC-04:00)

NOSS 3-1 (C) - Visible Passes

Search period start: 24 October 2014 00:00
Search period end: 02 November 2014 23:00
Orbit: 892 x 1317 km, 63.4° (Epoch: 19 October)

Date Brightness Start Highest point End Pass type
(mag) Time Alt. Az. Time Alt. Az. Time Alt. Az.
24 Oct 6.2 04:45:04 10° N 04:47:10 11° NNE 04:49:19 10° NE visible
24 Oct 5.3 06:33:34 10° NNW 06:40:25 37° NE 06:47:43 10° ESE visible
25 Oct 5.8 05:48:43 10° NNW 05:54:45 26° NE 06:01:09 10° E visible
26 Oct 6.1 05:04:00 10° N 05:08:55 19° NE 05:14:04 10° ENE visible
26 Oct 4.5 06:53:40 10° NNW 07:01:12 68° NE 07:09:15 10° SE visible
27 Oct 6.2 04:19:32 10° N 04:22:53 13° NNE 04:26:21 10° NE visible
27 Oct 5.0 06:08:37 10° NNW 06:15:47 46° NE 06:23:26 10° ESE visible
28 Oct 5.5 05:23:41 10° NNW 05:30:13 32° NE 05:37:09 10° ESE visible
29 Oct 5.9 04:38:53 10° N 04:44:28 22° NE 04:50:21 10° E visible
29 Oct 4.1 06:28:49 10° NNW 06:36:26 84° ENE 06:44:35 10° SSE visible
30 Oct 6.1 03:55:07 12° N 03:58:33 16° NNE 04:03:01 10° ENE visible
30 Oct 4.6 05:43:42 10° NNW 05:51:06 57° NE 05:59:01 10° SE visible
31 Oct 6.3 03:11:51 12° NNE 03:12:26 12° NNE 03:14:52 10° NE visible
31 Oct 5.1 04:59:18 12° NNW 05:05:37 39° NE 05:12:59 10° ESE visible
31 Oct 4.3 06:49:26 10° NW 06:56:47 52° WSW 07:04:34 10° S visible
31 Oct 4.8 20:40:02 10° SSW 20:42:23 25° S 20:42:23 25° S visible
01 Nov 5.6 04:16:09 18° N 04:19:58 27° NE 04:26:29 10° E visible
01 Nov 4.0 06:04:02 10° NW 06:11:38 79° WSW 06:19:46 10° SSE visible
01 Nov 4.1 19:55:33 10° S 19:59:46 33° SE 19:59:46 33° SE visible
01 Nov 5.8 21:46:05 10° WSW 21:47:16 16° WSW 21:47:16 16° WSW visible
02 Nov 5.9 02:33:08 19° NNE 02:34:09 19° NE 02:39:27 10° E visible
02 Nov 4.2 04:20:36 19° NNW 04:26:22 71° NE 04:34:27 10° SE visible
02 Nov 4.6 18:11:50 10° SSE 18:16:07 21° ESE 18:17:07 20° E visible
02 Nov 4.3 20:00:20 10° SW 20:04:36 45° WSW 20:04:36 45° WSW visible
